SL-16 R/B (23405 NORAD) Tracking and Keplerian Element Data

This shows tracking and keplerian element data for the satellite.

Feedback or suggestion? Click here.




ElementValue
Catalog23405
NameSL-16 R/B
Epoch Orbit55976
Epoch Day34.64544583
Epoch Year2025
RAAN111.9563
Inclination70.9834
Eccentricity0.0001823
Argument of Perigee344.1321
Mean Anonmoly15.9744
Mean Motion14.15488132
Decay Rate-8E-07
L11 23405U 94077B 25034.64544583 -.00000080 00000+0 -16336-4 0 9996
L22 23405 70.9834 111.9563 0001823 344.1321 15.9744 14.15488132559764



Live tracking and technical data element details for SL-16 R/B (NORAD 23405). SL-16 R/B can be tracked NOW for your location showing map with azimuth and elevation plus other details from your city location.







IsCatalogInMostPopularTable: catalog: 23405, numindb: 524
Update: records affected: 1



GetName: 23405 SL-16 R/B

Hit Count: updated at: Sat, 17 May 2025 09:20:52 GMT